Sturgeon Bay, WI

11:18 AM CDT on October 14, 2019 (GMT -0500)
Door County Cherryland

Weather History for KSUE - August, 2019

Change the Weather History Date:

Wednesday, August 14, 2019

  Actual Average Record
Temperature  
Mean Temperature 65 °F -  
Max Temperature 71 °F 78 °F 95 °F (1965)
Min Temperature 59 °F 58 °F 42 °F (1924)
Growing Degree Days 15 (Base 50)    
Moisture  
Dew Point 57 °F    
Average Humidity 72    
Maximum Humidity 87    
Minimum Humidity 55    
Precipitation  
Precipitation 0.00 in - - ()
Sea Level Pressure  
Sea Level Pressure 30.02 in    
Wind  
Wind Speed 8 mph (NE)    
Max Wind Speed 15 mph    
Max Gust Speed 17 mph    
Visibility 10 miles    
Events      
Averages and records for this station are not official NWS values.
T = Trace of Precipitation, MM = Missing Value Source: NWS Daily Summary

Daily Weather History Graph

Daily Weather History Graph

Search for Another Location

Airport or City:

Astronomy

Aug. 14, 2019 Rise Set
Actual Time 5:50 AM CDT 7:57 PM CDT
Civil Twilight 5:18 AM CDT 8:29 PM CDT
Nautical Twilight 4:38 AM CDT 9:08 PM CDT
Astronomical Twilight 3:55 AM CDT 9:52 PM CDT
Moon 7:54 PM CDT 4:43 AM CDT
Length of Visible Light 15h 11m
Length of Day
14h 07m
Waxing Gibbous, 99% of the Moon is Illuminated
Aug 14
Waxing Gibbous
Aug 15
Full
Aug 23
Last Quarter
Aug 30
New
Sep 5
First Quarter

Hourly Weather History & Observations

Time (CDT) Temp. Dew Point Humidity Pressure Visibility Wind Dir Wind Speed Gust Speed Precip Events Conditions
12:56 AM 64.0 °F 59.0 °F 84% 29.99 in 10.0 mi North 5.8 mph - N/A   Overcast
1:56 AM 64.0 °F 59.0 °F 84% 29.98 in 10.0 mi NNE 6.9 mph - N/A   Overcast
2:56 AM 64.0 °F 57.0 °F 78% 29.98 in 10.0 mi NNE 9.2 mph - N/A   Overcast
3:56 AM 63.0 °F 55.9 °F 78% 29.98 in 10.0 mi NE 9.2 mph - N/A   Overcast
4:56 AM 63.0 °F 55.0 °F 75% 29.99 in 10.0 mi NNE 9.2 mph - N/A   Overcast
5:56 AM 62.1 °F 55.0 °F 78% 30.01 in 10.0 mi NNE 6.9 mph - N/A   Overcast
6:56 AM 62.1 °F 55.9 °F 80% 30.01 in 10.0 mi NNE 8.1 mph - N/A   Overcast
7:56 AM 63.0 °F 57.9 °F 84% 30.02 in 10.0 mi NE 5.8 mph - N/A   Overcast
8:56 AM 64.0 °F 60.1 °F 87% 30.01 in 10.0 mi North 8.1 mph - N/A   Overcast
9:56 AM 68.0 °F 61.0 °F 78% 30.02 in 10.0 mi ENE 10.4 mph - N/A   Mostly Cloudy
10:29 AM 69.8 °F 60.8 °F 73% 30.03 in 10.0 mi NE 10.4 mph - N/A   Overcast
10:56 AM 69.1 °F 60.1 °F 73% 30.03 in 10.0 mi NE 12.7 mph 17.3 mph N/A   Mostly Cloudy
11:56 AM 70.0 °F 60.1 °F 71% 30.03 in 9.0 mi ENE 11.5 mph - N/A   Mostly Cloudy
12:56 PM 69.1 °F 59.0 °F 70% 30.02 in 10.0 mi ENE 9.2 mph - N/A   Overcast
1:17 PM 69.8 °F 57.2 °F 64% 30.04 in 10.0 mi ENE 15.0 mph - N/A   Overcast
1:56 PM 69.1 °F 57.9 °F 68% 30.04 in 10.0 mi ENE 8.1 mph - N/A   Overcast
2:56 PM 69.1 °F 55.9 °F 63% 30.04 in 10.0 mi NE 10.4 mph - N/A   Overcast
3:56 PM 71.1 °F 54.0 °F 55% 30.03 in 10.0 mi NE 9.2 mph - N/A   Mostly Cloudy
4:56 PM 71.1 °F 54.0 °F 55% 30.02 in 10.0 mi North 5.8 mph - N/A   Clear
5:56 PM 70.0 °F 55.0 °F 59% 30.01 in 10.0 mi NNE 5.8 mph - N/A   Overcast
6:56 PM 68.0 °F 53.1 °F 59% 30.01 in 10.0 mi ENE 3.5 mph - N/A   Clear
7:56 PM 64.9 °F 52.0 °F 63% 30.02 in 10.0 mi NNE 3.5 mph - N/A   Clear
8:56 PM 62.1 °F 53.1 °F 72% 30.04 in 10.0 mi North 3.5 mph - N/A   Clear
9:56 PM 59.0 °F 54.0 °F 83% 30.04 in 10.0 mi Calm Calm - N/A   Clear
10:56 PM 62.1 °F 54.0 °F 75% 30.05 in 10.0 mi North 4.6 mph - N/A   Clear
11:56 PM 63.0 °F 54.0 °F 72% 30.05 in 10.0 mi NE 4.6 mph - N/A   Overcast